Location: Hengforden
(52.3167°N, 6.1333°E)
Time: 15:39:51
(UTC+00:00)

Cosmos 1862 Rocket - Pass Details

Date: 14 June 2025
Orbit: 597 x 628 km, 82.5° (Epoch: 19 July)

Event Time Altitude Azimuth Distance (km) Brightness Sun altitude
Exits shadow 22:11:26 18° 160° (SSE) 1,532 4.9 -12.2°
Maximum altitude 22:14:25 46° 94° (E) 842 4.1 -12.3°
Drops below altitude 10° 22:18:39 10° 21° (NNE) 1,998 7.0 -12.5°
Sets 22:20:56 0° 16° (NNE) 2,904 8.0 -12.6°
